STARLINK-37326, 68542

Orbit data source: Space-Track

STARLINK-37326, 68542 is a payload satellite owned by SpaceX/Seattle (US) in LEO that was launched on Thu, 02 Apr 2026 UTC via an FALCON 9 launch vehicle from the Air Force Eastern Test Range (AFETR). Payload-class satellites include a variety of spacecraft equipped with specific instruments for various scientific and technological missions. These include communications satellites like Starlink; space stations such as the ISS; scientific satellites like the Hubble; Earth observation satellites from companies like Planet Labs, Umbra, and HawkEye 360; GPS; miniature CubeSats for education and research; and military/defense satellites.

Loading next visibility...
Identifier
68542, 2026-070A
Orbit
LEO
Country
Flag of USUS
Related business
Manufacturer
SpaceX/Seattle
Mission
Operational spacecraft
Bus & Motor
STARLINK V2MO, Unknown motor
Mass
575 kg wet, ~530 kg dry
Launch date (UTC)
2026-04-02 (2 months ago)
Launch vehicle
FALCON 9
Launch site
Air Force Eastern Test Range (AFETR)
Object type
Payload
Rocket body
Debris
Shape & HBR
Unknown shape, 14.5 m
Radar Cross Section
RCS unknown

Expand to show TLE details & history
Last TLE update: 5 hours ago

TLE from 5 hours ago
0 STARLINK-37326
1 68542U 26070A   26138.83335647 -.00009294  00000-0 -26405-3 0  9995
2 68542  53.1595  36.7855 0001790  93.3816 277.7790 15.34422548  6010
Epoch: 2026-05-18T20:00Z
TLE epoch observation values (Epoch: 2026-05-18T20:00:01.999Z)
Latitude
8.87055°
Longitude
-133.06137°
Altitude
462.655 km
Speed
7.637 km/s
True Right ascension
02h 53m 51s
True Declination
8° 48' 58"
Sunlit
Object was in daylight at epoch
Visualization orbit readout
Latitude
Unknown
Longitude
Unknown
Altitude
Unknown
Speed
Unknown
Apparent Right ascension
Unknown
Apparent Declination
Unknown
Sunlit
N/A
Visualization observer readout
Local Sidereal Time
09:53:08
Azimuth
Unknown
Elevation
Unknown
Doppler factor
Unknown
Orbital elements
Apogee altitude
464.118 km
Perigee altitude
461.669 km
Semi-major axis
6,841.03 km
Eccentricity
0.00018
Inclination
53.1595°
RAAN
36.7855°
Arg. of periapsis
93.3816°
True anomaly
277.75868°
Mean anomaly
277.779°
Eccentric anomaly
277.76884°
Mean motion
3.83584 °/min
Orbital period
93.85 mins
BSTAR
-0.00026405
Loading maneuver chart data...
Computing Atmospheric mass density...
Loading historical data...
Loading historical data...
Loading historical data...
Loading historical data...
Loading historical data...
Loading historical data...
Loading historical data...

Documentation

Showing up to 5 results
|